Location: Amherst
(42.5000°N, 72.5000°W)
Time: 07:59:24
(UTC-04:00)

ISS - Pass Details

Date: 19 July 2018
Orbit: 402 x 408 km, 51.6° (Epoch: 21 July)

Event Time Altitude Azimuth Distance (km) Brightness Sun altitude
Rises 23:12:03 0° 258° (WSW) 2,315 0.2 -22.4°
Reaches altitude 10° 23:14:14 10° 268° (W) 1,459 -0.7 -22.6°
Maximum altitude 23:17:16 34° 336° (NNW) 693 -2.1 -22.8°
Drops below altitude 10° 23:20:18 10° 43° (NE) 1,467 -0.8 -23.0°
Sets 23:22:31 0° 53° (NE) 2,331 0.2 -23.2°
